#timestamp,LO_Frequency,Hit,StdDev 
1675087215.3,286046988.5,P
1675087235.1,286046989.7,N
1675087255.9,286046991.1,N
1675087275.7,286046987.8,N
1675087295.5,286046987.4,N
1675087315.4,286046983.9,Y
1675087335.2,286046992.9,P
1675087355.1,286046991.9,P
1675087356.0,286046991.9,P
1675087375.8,286046992.0,Y
1675087395.6,286046999.9,P
1675087415.5,286047000.9,N
1675087435.3,286047000.6,N
1675087455.1,286046998.1,N
1675087475.9,286046998.7,N
1675087495.7,286046998.2,N
1675087515.5,286046999.6,N
1675087535.4,286046998.7,N
1675087555.2,286047000.7,N
1675087575.0,286047000.8,N
1675087575.9,286047000.8,N
1675087595.8,286046999.9,N
1675087615.6,286047000.3,N
1675087635.4,286047001.0,N
1675087655.3,286047000.9,N
1675087675.1,286046998.8,N
1675087676.0,286046998.8,N
1675087695.8,286046999.3,N
1675087715.7,286046996.6,N
1675087735.5,286046997.3,N
1675087755.3,286046996.6,N
1675087775.2,286046999.6,N
1675087795.9,286046996.5,N
1675087815.7,286046998.9,N
1675087835.6,286046998.9,N
1675087855.4,286046999.3,N
1675087875.2,286046999.0,N
1675087895.1,286046998.8,N
1675087896.0,286046998.8,N
1675087915.8,286047002.7,N
1675087935.6,286047002.8,N
1675087955.5,286046998.3,N
1675087975.3,286047000.6,N
1675087995.1,286047000.8,N
1675088015.9,286047000.6,N
1675088035.7,286047000.7,N
1675088055.5,286046998.7,N
1675088075.4,286047000.7,N
1675088095.2,286047001.1,N
1675088115.0,286046996.5,N
1675088115.9,286046996.5,N
1675088135.8,286046999.3,N
1675088155.6,286046999.5,N
1675088175.4,286046998.3,N
1675088195.3,286047001.2,N
1675088215.1,286047000.4,N
1675088235.9,286047000.0,N
1675088255.7,286046999.8,N
1675088275.5,286047000.5,N
1675088295.4,286047002.7,N
1675088315.2,286047001.8,N
1675088335.0,286047003.2,N
1675088335.9,286047003.2,N
1675088355.8,286047004.1,N
1675088375.6,286047001.4,N
1675088395.4,286047003.9,N
1675088415.3,286047001.4,N
1675088435.1,286047002.5,N
1675088436.0,286047002.5,N
1675088455.8,286047001.4,N
1675088475.7,286047003.9,N
1675088495.5,286047003.6,N
1675088515.3,286047005.7,N
1675088535.2,286047005.6,N
1675088555.9,286047003.9,N
1675088575.7,286047002.1,N
1675088595.6,286047004.0,N
1675088615.4,286047001.7,N
1675088635.2,286047004.1,N
1675088655.1,286047001.3,N
1675088656.0,286047001.3,N
1675088675.8,286047002.6,N
1675088695.6,286047002.8,N
1675088715.5,286047002.8,N
1675088735.3,286047002.0,N
1675088755.1,286047001.8,N
1675088775.9,286047002.3,N
1675088795.7,286047000.5,N
1675088815.5,286047002.6,N
1675088835.4,286046999.7,N
1675088855.2,286046999.8,N
1675088875.0,286046998.3,N
1675088875.9,286046998.3,N
1675088895.8,286046999.3,N
1675088915.6,286046998.5,N
1675088935.4,286046998.1,N
1675088955.3,286047000.0,N
1675088975.1,286047000.9,N
1675088995.8,286047000.7,N
1675089015.7,286047001.1,N
1675089035.5,286046997.0,N
1675089055.3,286046999.1,N
1675089075.2,286046999.6,N
1675089095.0,286046999.6,N
1675089095.9,286046999.6,N
1675089115.7,286046998.3,N
1675089135.6,286046998.2,N
1675089155.4,286046998.2,N
1675089175.2,286046998.5,N
1675089195.1,286046999.2,N
1675089196.0,286046999.2,N
1675089215.8,286046997.2,N
1675089235.7,286046997.4,N
1675089255.5,286046997.6,N
1675089275.3,286046997.9,N
1675089295.2,286046997.0,N
1675089315.9,286046996.6,N
1675089335.7,286046997.4,N
1675089355.6,286046995.1,Y
1675089375.4,286046998.4,P
1675089395.2,286046999.5,N
1675089415.1,286046998.6,P
1675089416.0,286046998.6,Y
1675089435.8,286047001.1,P
1675089455.6,286047000.4,N
1675089475.5,286047001.6,N
1675089495.3,286047002.9,N
1675089515.1,286047003.8,N
1675089535.9,286047004.1,N
1675089555.7,286047002.8,N
1675089575.5,286047000.6,N
1675089595.4,286047001.2,N
1675089615.2,286047001.2,N
1675089635.0,286046999.4,N
1675089635.9,286046999.4,N
1675089655.8,286046998.3,N
1675089675.6,286046998.7,N
1675089695.4,286047000.5,N
1675089715.3,286046999.8,N
1675089735.1,286047002.5,N
1675089755.8,286047002.6,N
1675089775.7,286047000.1,N
1675089795.5,286047002.8,N
1675089815.3,286047001.3,N
1675089835.2,286047001.8,N
1675089855.0,286047004.2,N
1675089855.9,286047004.2,N
1675089875.7,286047004.2,N
1675089895.6,286047003.6,N
1675089915.4,286047005.2,N
1675089935.2,286047005.7,N
1675089955.1,286047004.7,N
1675089956.0,286047004.7,N
1675089975.8,286047004.8,N
1675089995.6,286047005.9,N
1675090015.5,286047004.7,N
1675090035.3,286047007.1,Y
1675090055.2,286047003.5,P
1675090075.9,286047003.8,P
1675090095.7,286047005.6,P
1675090115.6,286047005.2,Y
1675090135.4,286047000.4,P
1675090155.2,286047000.6,N
1675090175.1,286046998.3,N
1675090176.0,286046998.3,N
1675090195.8,286047000.0,N
1675090215.6,286047000.5,N
1675090235.5,286046999.9,N
1675090255.3,286046998.6,N
1675090275.1,286046999.3,N
1675090295.9,286046995.4,N
1675090315.7,286046994.9,N
1675090335.5,286046999.6,N
1675090355.4,286047001.0,N
1675090375.2,286047001.1,N
1675090395.0,286046999.1,N
1675090395.9,286046999.1,N
1675090415.8,286047001.2,N
1675090435.6,286047000.0,N
1675090455.4,286047002.1,N
1675090475.3,286047003.9,N
1675090495.1,286047000.4,N
1675090515.8,286047002.4,N
1675090535.7,286047002.0,N
1675090555.5,286046998.6,N
1675090575.3,286046999.0,N
1675090595.2,286046999.2,N
1675090615.0,286046996.9,N
1675090615.9,286046996.9,N
1675090635.7,286046999.4,N
1675090655.6,286046996.8,N
1675090675.4,286046997.8,N
1675090695.2,286046997.1,N
1675090715.1,286046997.1,N
1675090716.0,286046997.1,N
1675090735.8,286046999.6,N
1675090755.6,286046997.8,N
1675090775.5,286046997.2,N
1675090795.3,286046999.2,N
